Вернуться в каталог

STARLINK-35993

АктивенСвязьVLEO
NORAD 66607·PAYLOAD·🇺🇸 United States

Запущен Nov 22, 2025 с Cape Canaveral Space Force Station

Loading…

Ближайшие Пролёты (ближайшие 24 часа)

TLE

СвежийSource: CelesTrak SupGP

Эпоха: Sep 15, 2026, 04:00 UTC

1 66607C 25270V   26258.16715278 -.00030804  00000+0 -11154-2 0  2589
2 66607  43.0015  66.2198 0001514 269.2751  57.0014 15.27602721    16

Отслеживайте STARLINK-35993 в реальном времени с AllMySat

Download on the App Store